Location: Bennemühlen
(52.5740°N, 9.7135°E)
Time: 01:49:49
(UTC+00:00)

Vanguard 2 Rocket - Pass Details

Date: 19 February 2026
Orbit: 553 x 3286 km, 32.9° (Epoch: 12 March)

Event Time Altitude Azimuth Distance (km) Brightness Sun altitude
Rises 17:02:55 0° 265° (W) 6,079 13.6 -4.0°
Reaches altitude 10° 17:10:52 10° 241° (WSW) 4,302 11.8 -5.2°
Maximum altitude 17:14:18 12° 223° (SW) 3,782 11.0 -5.7°
Drops below altitude 10° 17:17:17 10° 204° (SSW) 3,591 10.4 -6.1°
Sets 17:22:18 0° 173° (S) 3,974 10.2 -6.9°
